Home > Weather > Davis > Past weeks

Flag for USA Past Weather in Davis, California, USA — Yesterday and Last 2 Weeks

Now
66 °F

Passing clouds.


Feels Like: 66 °F
Forecast: 54 / 83 °F
Wind: 10 mph from South

Location: Sacramento International Airport

Current Time: May 25, 2016 at 10:00:11 PM

Latest Report: May 25, 2016 at 8:53 PM


Visibility: 10 mi

Pressure: 30.00 "Hg

Humidity: 56%

Dew Point: 50 °F

Location of DavisLocation

Past Weather in Davis — Graph

°F

Davis Temperature Yesterday

Maximum temperature yesterday: 76 °F (at 3:53 PM)
Minimum temperature yesterday: 54 °F (at 2:53 AM)
Average temperature yesterday: 63 °F

High & Low Weather Summary for the Past Weeks

 TemperatureHumidityPressure
High96 °F (May 18, 2:53 PM)96% (May 11, 4:53 AM)30.08 "Hg (May 11, 4:53 AM)
Low48 °F (May 22, 5:53 AM)15% (May 18, 2:53 PM)29.62 "Hg (May 20, 1:53 AM)
Average67 °F57%29.90 "Hg
* Reported May 10 8:53 PM — May 25 8:53 PM, Davis, Weather by CustomWeather, © 2016

Note: Actual official high and low records may vary slightly from our data, if they occured in-between our weather recording intervals... More about our weather records

Advertising

Davis Weather History for the Previous 24 Hours

Scroll right to see more
 ConditionsComfort  
Time TempWeatherWind HumidityBarometerVisibility
8:53 PM
Wed, May 25
66 °FPassing clouds.10 mph56%30.00 "Hg10 mi
7:53 PM70 °FPassing clouds.14 mph51%29.98 "Hg10 mi
6:53 PM75 °FPassing clouds.15 mph48%29.98 "Hg10 mi
5:53 PM77 °FPassing clouds.17 mph45%29.98 "Hg10 mi
4:53 PM78 °FScattered clouds.13 mph43%29.98 "Hg10 mi
3:53 PM79 °FBroken clouds.N/A39%29.99 "Hg10 mi
2:53 PM78 °FPassing clouds.8 mph40%30.00 "Hg10 mi
1:53 PM76 °FSunny.5 mph45%30.01 "Hg10 mi
12:53 PM75 °FScattered clouds.6 mph47%30.03 "Hg10 mi
11:53 AM71 °FScattered clouds.5 mph53%30.05 "Hg10 mi
10:53 AM69 °FPassing clouds.5 mph55%30.06 "Hg10 mi
9:53 AM65 °FPassing clouds.5 mph63%30.06 "Hg10 mi
8:53 AM60 °FPassing clouds.No wind75%30.06 "Hg10 mi
7:53 AM57 °FPassing clouds.3 mph83%30.04 "Hg10 mi
6:53 AM54 °FScattered clouds.6 mph86%30.03 "Hg10 mi
5:53 AM53 °FPassing clouds.6 mph86%30.02 "Hg10 mi
4:53 AM53 °FPassing clouds.6 mph86%30.02 "Hg10 mi
3:53 AM53 °FPassing clouds.5 mph86%30.00 "Hg10 mi
2:53 AM54 °FPassing clouds.3 mph83%30.00 "Hg10 mi
1:53 AM55 °FPassing clouds.6 mph83%30.00 "Hg10 mi
12:53 AM56 °FPassing clouds.9 mph81%30.00 "Hg10 mi
11:53 PM
Tue, May 24
56 °FPassing clouds.9 mph81%29.99 "Hg10 mi
10:53 PM58 °FPassing clouds.9 mph75%29.98 "Hg10 mi
Weather by CustomWeather, © 2016

See weather overviewHow to use our weather pages